Location: Kellogg
(38.0159°N, 90.0546°W)
Time: 08:05:22
(UTC+00:00)

Altair - Pass Details

Date: 14 September 2024
Orbit: 1501 x 1682 km, 47.2° (Epoch: 07 October)

Event Time Altitude Azimuth Distance (km) Brightness Sun altitude
Rises 12:04:47 0° 286° (WNW) 4,919 9.5 3.7°
Reaches altitude 10° 12:08:07 10° 291° (WNW) 3,940 9.1 4.4°
Maximum altitude 12:17:58 51° 6° (N) 2,027 8.3 6.3°
Drops below altitude 10° 12:27:44 10° 81° (E) 3,910 11.9 8.2°
Sets 12:31:01 0° 87° (E) 4,878 12.4 8.9°
